GW4014 Weather Reports


time (UTC)temp
F
wind
direction
speed
knots
gust
knots
rain 1hr
in
rain 24hr
in
rain mn
in
humidity
%
barometer
mb
20260505101032 59 148 0.0 2.6 0.00 0.00 0.00 60 1012.0
20260505100532 59 121 0.9 0.9 0.00 0.00 0.00 60 1012.0
20260505100033 59 184 0.9 6.1 0.00 0.00 0.00 60 1012.0
20260505095533 59 153 0.9 5.2 0.00 0.00 0.00 61 1012.0
20260505095032 59 113 0.9 1.7 0.00 0.00 0.00 60 1012.0
20260505094532 59 0 0.0 3.5 0.00 0.00 0.00 60 1012.0
20260505094032 59 73 0.9 0.9 0.00 0.00 0.00 60 1012.0
20260505093532 59 195 0.9 1.7 0.00 0.00 0.00 61 1012.0
20260505093032 59 288 0.0 2.6 0.00 0.00 0.00 59 1012.0
20260505092532 59 90 0.0 1.7 0.00 0.00 0.00 59 1012.0
20260505092032 59 137 0.9 1.7 0.00 0.00 0.00 59 1012.0
20260505091533 59 104 0.9 1.7 0.00 0.00 0.00 59 1012.0
20260505091032 59 179 0.9 3.5 0.00 0.00 0.00 58 1012.0
20260505090320 59 118 0.9 3.5 0.00 0.00 0.00 59 1012.0
20260505085820 59 149 1.7 4.3 0.00 0.00 0.00 59 1012.0
20260505085321 59 90 0.9 2.6 0.00 0.00 0.00 59 1012.0
20260505084820 59 179 0.0 2.6 0.00 0.00 0.00 59 1012.0
20260505084319 60 135 0.9 1.7 0.00 0.00 0.00 58 1012.0
20260505083821 60 112 1.7 2.6 0.00 0.00 0.00 58 1012.0
20260505083319 60 131 0.0 2.6 0.00 0.00 0.00 57 1012.0
20260505082819 60 97 0.9 3.5 0.00 0.00 0.00 57 1012.0
20260505082319 60 164 0.9 2.6 0.00 0.00 0.00 57 1012.0
20260505081819 60 113 2.6 4.3 0.00 0.00 0.00 57 1012.0
20260505081319 60 166 0.9 3.5 0.00 0.00 0.00 57 1012.0
20260505080819 60 117 0.0 4.3 0.00 0.00 0.00 57 1012.0
20260505080319 60 107 0.9 5.2 0.00 0.00 0.00 57 1012.0
20260505075819 60 90 0.9 3.5 0.00 0.00 0.00 57 1012.0
20260505075319 60 149 0.9 3.5 0.00 0.00 0.00 57 1012.0
20260505074608 60 113 0.9 4.3 0.00 0.00 0.00 56 1012.0
20260505074109 60 132 0.0 3.5 0.00 0.00 0.00 57 1012.0
20260505073608 60 76 0.9 1.7 0.00 0.00 0.00 56 1012.0
20260505073108 60 277 0.0 2.6 0.00 0.00 0.00 56 1012.0
20260505072357 60 42 0.0 1.7 0.00 0.00 0.00 56 1012.0
20260505071856 60 157 0.9 2.6 0.00 0.00 0.00 57 1012.0
20260505071356 60 68 0.9 2.6 0.00 0.00 0.00 56 1012.0
20260505070644 60 120 0.9 3.5 0.00 0.00 0.00 56 1012.0
20260505070142 60 130 0.0 3.5 0.00 0.00 0.00 57 1012.0
20260505065431 60 67 3.5 4.3 0.00 0.00 0.00 57 1012.0
20260505064931 60 149 0.9 4.3 0.00 0.00 0.00 59 1012.0
20260505064433 59 90 0.0 2.6 0.00 0.00 0.00 58 1012.0
20260505063933 59 90 0.0 2.6 0.00 0.00 0.00 58 1012.0
20260505063431 60 90 0.0 0.9 0.00 0.00 0.00 58 1012.0
20260505062931 60 66 0.9 1.7 0.00 0.00 0.00 58 1012.0
20260505062221 60 61 0.9 1.7 0.00 0.00 0.00 57 1012.0
20260505061720 60 90 0.0 1.7 0.00 0.00 0.00 58 1012.0
20260505061220 60 64 0.0 1.7 0.00 0.00 0.00 58 1012.0
20260505060720 60 49 1.7 1.7 0.00 0.00 0.00 56 1012.0
20260505060007 60 136 0.9 0.9 0.00 0.00 0.00 57 1012.0
20260505055507 60 72 0.0 1.7 0.00 0.00 0.00 57 1012.0
20260505055007 61 73 0.9 0.9 0.00 0.00 0.00 56 1012.0
20260505054508 60 135 0.0 1.7 0.00 0.00 0.00 56 1012.0
20260505054008 61 56 0.9 1.7 0.00 0.00 0.00 56 1012.0
20260505053507 61 63 0.9 1.7 0.00 0.00 0.00 56 1012.0
20260505053008 61 50 0.0 0.9 0.00 0.00 0.00 55 1012.0
20260505052507 62 162 0.9 1.7 0.00 0.00 0.00 55 1012.0
20260505051545 61 56 0.0 0.9 0.00 0.00 0.00 55 1012.0
20260505051044 62 49 0.9 0.9 0.00 0.00 0.00 55 1012.0
20260505050332 62 82 1.7 1.7 0.00 0.00 0.00 55 1012.0
20260505041156 62 71 0.9 2.6 0.00 0.00 0.00 54 1012.0
20260505040656 61 90 0.0 0.9 0.00 0.00 0.00 54 1012.0
20260505040156 61 60 0.0 2.6 0.00 0.00 0.00 54 1012.0
20260505035657 61 52 0.0 1.7 0.00 0.00 0.00 54 1012.0
20260505035156 61 50 0.9 0.9 0.00 0.00 0.00 53 1012.0
20260505034656 61 56 0.0 1.7 0.00 0.00 0.00 54 1012.0
20260505034156 61 206 0.0 3.5 0.00 0.00 0.00 52 1012.0
20260505033657 61 51 0.0 1.7 0.00 0.00 0.00 53 1012.0
20260505033157 62 50 0.0 1.7 0.00 0.00 0.00 53 1012.0
20260505032655 62 90 0.0 1.7 0.00 0.00 0.00 52 1012.0
20260505032155 62 112 0.9 1.7 0.00 0.00 0.00 52 1012.0
20260505031443 62 64 0.9 0.9 0.00 0.00 0.00 51 1012.0
20260505030945 62 90 0.0 0.9 0.00 0.00 0.00 51 1012.0
20260505030443 62 142 0.9 1.7 0.00 0.00 0.00 51 1012.0
20260505025943 62 59 0.9 1.7 0.00 0.00 0.00 51 1012.0
20260505025444 62 72 0.9 1.7 0.00 0.00 0.00 50 1012.0
20260505024733 62 48 0.9 1.7 0.00 0.00 0.00 50 1012.0
20260505024232 63 111 0.9 0.9 0.00 0.00 0.00 50 1012.0
20260505023058 63 90 0.0 0.9 0.00 0.00 0.00 49 1012.0
20260505022558 63 74 0.9 1.7 0.00 0.00 0.00 49 1012.0
20260505022059 63 74 0.9 0.9 0.00 0.00 0.00 49 1012.0
20260505021559 64 90 0.9 1.7 0.00 0.00 0.00 48 1012.0
20260505021058 64 68 1.7 1.7 0.00 0.00 0.00 48 1012.0
20260505020347 65 57 1.7 1.7 0.00 0.00 0.00 47 1012.0
20260505015847 65 90 0.0 0.9 0.00 0.00 0.00 46 1012.0
20260505015136 65 90 0.0 0.9 0.00 0.00 0.00 46 1012.0
20260505014636 65 112 0.0 0.9 0.00 0.00 0.00 45 1012.0
20260505014134 66 70 0.9 0.9 0.00 0.00 0.00 46 1012.0
20260505013635 66 115 0.0 1.7 0.00 0.00 0.00 45 1012.0
20260505013134 66 56 0.0 1.7 0.00 0.00 0.00 45 1011.0
20260505012635 66 64 0.9 1.7 0.00 0.00 0.00 45 1011.0
20260505012134 66 144 0.9 0.9 0.00 0.00 0.00 44 1011.0
20260505011634 67 78 0.9 0.9 0.00 0.00 0.00 44 1011.0
20260505011135 67 90 0.0 0.9 0.00 0.00 0.00 44 1011.0
20260505010634 67 90 0.9 0.9 0.00 0.00 0.00 44 1012.0
20260505010134 67 133 0.0 0.9 0.00 0.00 0.00 43 1011.0
20260505005634 67 107 0.0 0.9 0.00 0.00 0.00 43 1011.0
20260505005134 68 113 0.0 0.9 0.00 0.00 0.00 42 1011.0
20260505004634 68 53 0.0 0.9 0.00 0.00 0.00 42 1011.0
20260505004135 69 43 0.0 1.7 0.00 0.00 0.00 42 1011.0
20260505003634 69 49 1.7 1.7 0.00 0.00 0.00 40 1011.0
20260505003134 69 90 0.0 0.9 0.00 0.00 0.00 40 1011.0
20260505002635 69 76 0.9 4.3 0.00 0.00 0.00 40 1011.0
20260505002134 69 90 0.0 1.7 0.00 0.00 0.00 40 1011.0
20260505000958 70 122 0.0 1.7 0.00 0.00 0.00 39 1011.0
20260505000458 70 54 0.9 1.7 0.00 0.00 0.00 39 1011.0
20260504235958 70 141 0.0 2.6 0.00 0.00 0.00 39 1011.0
20260504235459 70 69 0.9 2.6 0.00 0.00 0.00 39 1011.0
20260504234958 70 37 0.9 3.5 0.00 0.00 0.00 39 1011.0
20260504234459 70 105 0.9 4.3 0.00 0.00 0.00 39 1011.0
20260504233957 70 59 1.7 2.6 0.00 0.00 0.00 39 1011.0
20260504233459 71 120 1.7 6.1 0.00 0.00 0.00 38 1011.0
20260504232957 71 90 0.0 5.2 0.00 0.00 0.00 38 1011.0
20260504232245 71 110 4.3 7.0 0.00 0.00 0.00 37 1011.0
20260504231744 71 101 0.9 3.5 0.00 0.00 0.00 37 1011.0
20260504231245 71 74 0.9 5.2 0.00 0.00 0.00 36 1011.0
20260504230744 72 179 0.0 4.3 0.00 0.00 0.00 36 1011.0
20260504230244 72 76 1.7 2.6 0.00 0.00 0.00 35 1011.0
20260504225745 72 49 1.7 7.0 0.00 0.00 0.00 37 1011.0
20260504225244 72 114 1.7 4.3 0.00 0.00 0.00 35 1011.0
20260504224744 72 136 0.9 6.1 0.00 0.00 0.00 35 1011.0
20260504224031 72 100 2.6 5.2 0.00 0.00 0.00 35 1011.0
20260504223531 72 134 1.7 8.7 0.00 0.00 0.00 34 1011.0
20260504222819 72 3 3.5 7.8 0.00 0.00 0.00 33 1011.0
20260504222318 72 98 1.7 11.3 0.00 0.00 0.00 33 1011.0
20260504221818 73 118 1.7 7.8 0.00 0.00 0.00 33 1011.0
20260504221318 73 323 0.9 7.0 0.00 0.00 0.00 33 1011.0
20260504220818 73 49 0.9 7.0 0.00 0.00 0.00 34 1011.0
20260504220319 73 65 1.7 4.3 0.00 0.00 0.00 33 1011.0
20260504215818 74 130 2.6 6.1 0.00 0.00 0.00 32 1011.0
20260504215320 75 74 0.9 3.5 0.00 0.00 0.00 34 1011.0
20260504214820 76 106 0.9 4.3 0.00 0.00 0.00 30 1011.0
20260504214318 76 90 0.0 3.5 0.00 0.00 0.00 31 1011.0
20260504213818 75 192 0.9 7.8 0.00 0.00 0.00 32 1011.0
20260504213108 75 26 1.7 6.1 0.00 0.00 0.00 32 1011.0
20260504212607 75 76 0.9 7.8 0.00 0.00 0.00 33 1011.0
20260504212107 75 116 2.6 3.5 0.00 0.00 0.00 33 1011.0
20260504211607 74 234 0.9 0.9 0.00 0.00 0.00 33 1011.0
20260504210218 74 337 1.7 4.3 0.00 0.00 0.00 35 1011.0
20260504205718 74 254 0.0 6.1 0.00 0.00 0.00 32 1011.0
20260504205218 74 188 3.5 4.3 0.00 0.00 0.00 32 1011.0
20260504204717 74 30 0.9 11.3 0.00 0.00 0.00 33 1011.0
20260504204217 74 42 0.0 4.3 0.00 0.00 0.00 32 1011.0
20260504203505 74 279 0.0 6.1 0.00 0.00 0.00 31 1011.0
20260504202543 75 29 0.9 5.2 0.00 0.00 0.00 32 1011.0
20260504202044 75 83 2.6 7.0 0.00 0.00 0.00 31 1011.0
20260504201543 75 60 2.6 4.3 0.00 0.00 0.00 32 1011.0
20260504201044 76 84 4.3 6.1 0.00 0.00 0.00 30 1011.0
20260504200545 77 60 1.7 5.2 0.00 0.00 0.00 31 1011.0
20260504200043 77 90 0.0 7.0 0.00 0.00 0.00 30 1011.0
20260504195544 78 50 1.7 7.0 0.00 0.00 0.00 30 1012.0
20260504195043 79 179 0.0 5.2 0.00 0.00 0.00 29 1012.0
20260504194331 80 109 4.3 5.2 0.00 0.00 0.00 30 1012.0
20260504193620 81 17 0.9 4.3 0.00 0.00 0.00 28 1012.0
20260504193121 81 59 3.5 4.3 0.00 0.00 0.00 30 1012.0
20260504192410 81 111 1.7 4.3 0.00 0.00 0.00 26 1012.0
20260504191910 82 64 0.0 6.1 0.00 0.00 0.00 27 1012.0
20260504191408 82 254 0.9 4.3 0.00 0.00 0.00 26 1012.0
20260504190910 82 334 0.9 3.5 0.00 0.00 0.00 30 1013.0
20260504190408 80 130 0.0 5.2 0.00 0.00 0.00 28 1012.0
20260504185908 80 0 2.6 5.2 0.00 0.00 0.00 27 1013.0
20260504185408 80 283 0.9 5.2 0.00 0.00 0.00 27 1013.0
20260504184908 80 118 0.0 3.5 0.00 0.00 0.00 28 1013.0
20260504184408 81 79 1.7 4.3 0.00 0.00 0.00 27 1013.0
20260504183909 80 53 1.7 7.0 0.00 0.00 0.00 28 1013.0
20260504183408 79 94 2.6 5.2 0.00 0.00 0.00 28 1013.0
20260504182909 80 287 0.0 6.1 0.00 0.00 0.00 28 1013.0
20260504182408 80 49 2.6 6.1 0.00 0.00 0.00 28 1013.0
20260504181908 80 130 0.9 7.0 0.00 0.00 0.00 28 1013.0
20260504181408 79 188 0.0 7.0 0.00 0.00 0.00 27 1013.0
20260504180909 79 71 1.7 6.1 0.00 0.00 0.00 27 1013.0
20260504180408 78 58 2.6 6.1 0.00 0.00 0.00 27 1013.0
20260504175909 78 75 2.6 7.8 0.00 0.00 0.00 26 1013.0
20260504175409 79 147 0.9 6.1 0.00 0.00 0.00 25 1013.0
20260504174908 80 90 0.9 7.0 0.00 0.00 0.00 25 1013.0
20260504174408 80 72 0.9 4.3 0.00 0.00 0.00 26 1013.0
20260504173908 78 97 3.5 7.0 0.00 0.00 0.00 24 1013.0
20260504173409 79 254 0.0 4.3 0.00 0.00 0.00 27 1014.0
20260504172908 78 46 0.9 5.2 0.00 0.00 0.00 25 1014.0
20260504172158 78 31 2.6 6.1 0.00 0.00 0.00 26 1014.0
20260504171657 78 15 4.3 11.3 0.00 0.00 0.00 24 1014.0
20260504171157 78 73 0.9 4.3 0.00 0.00 0.00 26 1014.0
20260504170657 78 59 0.9 5.2 0.00 0.00 0.00 26 1014.0
20260504160233 75 8 0.9 7.0 0.00 0.00 0.00 29 1015.0
20260504151058 71 106 1.7 2.6 0.00 0.00 0.00 31 1015.0
20260504150558 69 127 0.9 3.5 0.00 0.00 0.00 33 1015.0
20260504141134 61 74 0.9 4.3 0.00 0.00 0.00 43 1015.0
20260504140633 61 197 0.9 3.5 0.00 0.00 0.00 44 1015.0
20260504140133 60 63 2.6 5.2 0.00 0.00 0.00 44 1015.0
20260504130422 54 77 5.2 6.1 0.00 0.00 0.00 52 1015.0
20260504110110 47 143 0.9 1.7 0.00 0.00 0.00 66 1016.0